User: anonymous   Login
Location: Bouchavesnes-Bergen
(49.9859°N, 2.9203°E)
Time: 10:33:25
(UTC+00:00)
Language:

Cosmos 883 Rocket - Orbit

View from above orbital plane
View from above orbital plane
View from above satellite
View from above satellite

Ground track
Ground track

The orbit data is extracted from the following two-line orbital elements,

1 09613U 76122B   21131.65244360  .00000030  00000-0  14914-4 0  9991
2 09613  82.9539 174.2440 0028764 255.5002 104.2964 13.77477147231173
Epoch (UTC): 11 May 2021 15:39:31
Eccentricity: 0.0028764
inclination: 82.9539°
perigee height: 952 km
apogee height: 994 km
right ascension of ascending node: 174.2440°
argument of perigee: 255.5002°
revolutions per day: 13.77477147
mean anomaly at epoch: 104.2964°
orbit number at epoch: 23117

The dashed part of the orbit path shows where the satellite is in the earth's shadow,  

DLR